Location: Eboldshausen
(51.7766°N, 10.0050°E)
Time: 16:20:32
(UTC+00:00)

Meteor 2-3 Rocket - Pass Details

Date: 15 November 2025
Orbit: 841 x 884 km, 81.2° (Epoch: 08 December)

Event Time Altitude Azimuth Distance (km) Brightness Sun altitude
Rises 17:10:59 0° 351° (N) 3,478 6.9 -15.5°
Reaches altitude 10° 17:13:43 10° 1° (N) 2,529 6.1 -15.9°
Maximum altitude 17:18:50 32° 64° (ENE) 1,449 4.4 -16.7°
Enters shadow 17:20:45 26° 99° (E) 1,640 4.6 -17.0°
